Flag for Norway Weather past 2 weeks in Mo i Rana, Norway

Now
34 °F

Sunny.


Feels Like: 30 °F
Forecast: 16 / 38 °F
Wind: 5 mph from Northwest

Location: Mo I Rana / Rossvoll

Current Time: Mar 31, 2015 at 3:07:23 PM

Latest Report: Mar 31, 2015 at 2:20 PM


Visibility: 10 mi

Pressure: 28.94 "Hg

Humidity: 65%

Dew point: 23 °F

Location of Mo i RanaLocation

Historic Weather in Mo i Rana — Graph

°F

Mo i Rana temperature yesterday

Maximum temperature yesterday: 39 °F (at 12:20 PM)
Minimum temperature yesterday: 27 °F (at 9:50 PM)
Average temperature yesterday: 34 °F

Past Weeks' High & Low Weather Summary

 TemperatureHumidityPressure
High43 °F (Mar 18, 3:50 PM)100% (Mar 18, 6:20 AM)30.77 "Hg (Mar 18, 6:20 AM)
Low3 °F (Mar 25, 6:50 AM)29% (Mar 25, 2:50 PM)28.94 "Hg (Mar 29, 10:50 PM)
Average30 °F70%29.86 "Hg
* Reported Mar 16 12:20 PM — Mar 31 1:50 PM, Mo i Rana, Weather by CustomWeather, © 2015

Note: Actual official high and low records may vary slightly from our data, if they occured in-between our weather recording intervals... More about our weather records

Advertising

Mo i Rana weather history for previous 24 hours

 ConditionsComfort  
Time TempWeatherWind HumidityBarometerVisibility
1:50 PM
Tue, Mar 31
32 °FSunny.7 mph69%28.94 "Hg10 mi
1:20 PM32 °FSunny.5 mph69%28.94 "Hg10 mi
12:50 PM32 °FSunny.5 mph69%28.94 "Hg10 mi
11:50 AM30 °FSunny.2 mph75%28.94 "Hg10 mi
11:20 AM30 °FSunny.2 mph69%28.94 "Hg10 mi
10:50 AM30 °FSunny.No wind69%28.97 "Hg10 mi
9:50 AM28 °FSunny.No wind80%28.97 "Hg10 mi
9:20 AM25 °FSunny.2 mph86%28.97 "Hg10 mi
8:50 AM23 °FSunny.1 mph93%28.97 "Hg10 mi
8:20 AM23 °FSunny.1 mph86%29.00 "Hg10 mi
7:50 AM21 °FSunny.2 mph93%29.00 "Hg10 mi
6:50 AM21 °FClear.2 mph93%29.00 "Hg10 mi
6:20 AM21 °FClear.2 mph100%29.00 "Hg10 mi
5:50 AM23 °FClear.2 mph93%29.03 "Hg10 mi
10:50 PM
Mon, Mar 30
28 °FPassing clouds.No wind100%29.12 "HgN/A
9:50 PM27 °FPassing clouds.No wind100%29.12 "HgN/A
9:20 PM28 °FPassing clouds.No wind93%29.12 "HgN/A
8:50 PM30 °FScattered clouds.No wind100%29.12 "HgN/A
8:20 PM30 °FScattered clouds.No wind100%29.12 "HgN/A
7:50 PM32 °FScattered clouds.No wind93%29.12 "HgN/A
6:50 PM36 °FScattered clouds.5 mph87%29.12 "HgN/A
6:20 PM36 °FScattered clouds.5 mph87%29.12 "HgN/A
5:50 PM36 °FScattered clouds.5 mph87%29.09 "HgN/A
5:20 PM36 °FScattered showers. Scattered clouds.5 mph87%29.09 "HgN/A
4:50 PM36 °FSprinkles. Broken clouds.5 mph87%29.09 "HgN/A
3:50 PM36 °FSprinkles. Broken clouds.5 mph87%29.09 "HgN/A
3:20 PM34 °FSprinkles. Broken clouds.5 mph87%29.06 "HgN/A
Weather by CustomWeather, © 2015

See weather overviewHow to use our weather pages